Weather in Tatarbunary

Ukraine / Odesa District     45°50′12″N   29°37′00″E
temp.,
°C
wind,
m/s
gust,
m/s
humid.,
%
clouds,
%
prec.,
mm/h
press.,
hPa
HPBL,
m
15 may, sat
sat1500:00+14ssw48801 0.0 1010157
03:00+13wsw34820 0.0 101154
06:00+12sw36870 0.0 1011109
09:00+18sw34615 0.0 1012494
12:00+23sw46415 0.0 10121916
15:00+22se774890 0.0 1012792
18:00+19se695788 0.0 1011289
21:00+15sse47730 0.0 1011119
16 may, sun
sun1600:00+14sse3583100 0.0 101271
03:00+13e2287100 0.0 101111
06:00+13e2289100 0.0 101111
09:00+19ene4564100 0.0 1011472
12:00+22ese5548100 0.0 1011952
15:00+20ese5654100 0.0 1010597
18:00+18e4563100 0.0 1009260
21:00+16nw2262100 0.0 100811
17 may, mon
mon1700:00+16wnw2360100 0.0 100727
03:00+15w336599 0.0 100647
06:00+14nnw337291 0.0 100548
09:00+20wnw3355100 0.0 1006473
12:00+22wnw344939 0.0 10061294
15:00+25wnw563990 0.4 10052713
18:00+23wnw35422 0.0 10051085
21:00+18s446493 0.0 100653
18 may, tue
tue1800:00+17sw48724 0.0 1006132
03:00+15sw478297 0.0 1006126
06:00+14wsw4887100 0.0 1006167
09:00+19wnw795226 0.0 1008706
12:00+22w5646100 0.0 10091952
15:00+22w3647100 0.0 10091601
18:00+21nw455587 0.1 1009720
21:00+17ne116582 0.2 101011
19 may, wed
wed1900:00+15s117499 0.0 101111
03:00+15wsw2274100 0.1 101114
06:00+14nnw1190100 1.5 101050
09:00+15nne3484100 3.3 1011443
12:00+15ene3386100 1.9 1010347
15:00+14ene0190100 10.8 1010110
18:00+14se2292100 4.8 101085
21:00+13wsw2394100 7.1 1010101